Location: Unspecified
(41.5000°N, 0.0000°E)
Time: 23:05:45
(UTC+00:00)

Explorer 7 - All Passes

Search period start: 20 June 2019 00:00
Search period end: 30 June 2019 00:00
Orbit: 485 x 680 km, 50.3° (Epoch: 19 June)

Date Brightness Start Highest point End Pass type
(mag) Time Alt. Az. Time Alt. Az. Time Alt. Az.
20 Jun - 08:30:52 10° SSW 08:34:43 33° SE 08:38:49 10° ENE daylight
20 Jun - 10:10:49 10° WSW 10:15:10 54° NNW 10:19:48 10° NE daylight
20 Jun - 11:52:30 10° WNW 11:56:32 28° N 12:00:43 10° NE daylight
20 Jun - 13:33:43 10° NW 13:38:07 35° NNE 13:42:37 10° E daylight
20 Jun - 15:14:16 10° WNW 15:19:10 85° SSW 15:24:05 10° SE daylight
20 Jun - 16:56:00 10° W 16:59:17 18° SW 17:02:32 10° S daylight
21 Jun - 08:35:30 10° SW 08:39:39 53° SE 08:44:07 10° ENE daylight
21 Jun - 10:16:10 10° W 10:20:23 41° NNW 10:24:52 10° NE daylight
21 Jun - 11:57:53 10° WNW 12:01:53 28° N 12:06:02 10° ENE daylight
21 Jun - 13:38:49 10° NW 13:43:23 43° NNE 13:48:03 10° E daylight
21 Jun - 15:19:25 10° WNW 15:24:11 57° SW 15:29:00 10° SE daylight
21 Jun - 17:02:59 10° WSW 17:04:03 11° SW 17:05:06 10° SW daylight
22 Jun - 07:02:28 10° SSE 07:04:45 14° SE 07:07:08 10° E daylight
22 Jun - 08:40:24 10° SW 08:44:40 83° SSE 08:49:16 10° ENE daylight
22 Jun - 10:21:36 10° W 10:25:40 33° NNW 10:29:58 10° NE daylight
22 Jun - 12:03:11 10° NW 12:07:14 28° N 12:11:26 10° ENE daylight
22 Jun - 13:43:52 10° NW 13:48:35 56° NNE 13:53:25 10° ESE daylight
22 Jun - 15:24:40 10° WNW 15:29:09 37° SW 15:33:40 10° SSE daylight
23 Jun - 07:06:13 10° S 07:09:34 24° SE 07:13:04 10° E daylight
23 Jun - 08:45:31 10° WSW 08:49:46 67° NNW 08:54:21 10° NE daylight
23 Jun - 10:27:03 10° WNW 10:31:00 29° N 10:35:08 10° NE daylight
23 Jun - 12:08:24 10° NW 12:12:34 31° NNE 12:16:54 10° ENE daylight
23 Jun - 13:48:56 10° NW 13:53:44 77° NNE 13:58:39 10° ESE daylight
23 Jun - 15:30:09 10° W 15:34:02 24° SW 15:37:58 10° S daylight
24 Jun - 07:10:35 10° SSW 07:14:26 38° SE 07:18:32 10° ENE daylight
24 Jun - 08:50:47 10° W 08:54:57 48° NNW 08:59:25 10° NE daylight
24 Jun - 10:32:28 10° WNW 10:36:20 27° N 10:40:24 10° NE daylight
24 Jun - 12:13:31 10° NW 12:17:52 37° NNE 12:22:22 10° E daylight
24 Jun - 13:54:02 10° WNW 13:58:50 75° SW 14:03:43 10° SE daylight
24 Jun - 15:36:05 10° W 15:38:52 15° SW 15:41:40 10° SSW daylight
25 Jun - 07:15:19 10° SW 07:19:24 62° SE 07:23:47 10° ENE daylight
25 Jun - 08:56:10 10° W 09:00:12 37° NNW 09:04:29 10° NE daylight
25 Jun - 10:37:49 10° NW 10:41:42 27° N 10:45:45 10° ENE daylight
25 Jun - 12:18:36 10° NW 12:23:07 46° NNE 12:27:48 10° E daylight
25 Jun - 13:59:12 10° WNW 14:03:50 49° SW 14:08:34 10° SE daylight
26 Jun - 05:41:53 10° S 05:44:27 16° SE 05:47:06 10° E daylight
26 Jun - 07:20:18 10° WSW 07:24:26 86° NNW 07:28:54 10° ENE daylight
26 Jun - 09:01:37 10° WNW 09:05:29 31° NNW 09:09:36 10° NE daylight
26 Jun - 10:43:05 10° NW 10:47:03 28° N 10:51:10 10° ENE daylight
26 Jun - 12:23:39 10° NW 12:28:18 61° NNE 12:33:08 10° ESE daylight
26 Jun - 14:04:31 10° WNW 14:08:46 32° SW 14:13:07 10° SSE daylight
27 Jun - 05:45:52 10° SSW 05:49:17 27° SE 05:52:52 10° ENE daylight
27 Jun - 07:25:28 10° WSW 07:29:34 59° NNW 07:33:58 10° NE daylight
27 Jun - 09:07:04 10° WNW 09:10:49 27° N 09:14:47 10° NE daylight
27 Jun - 10:48:15 10° NW 10:52:21 32° NNE 10:56:39 10° ENE daylight
27 Jun - 12:28:43 10° WNW 12:33:25 86° NNE 12:38:19 10° ESE daylight
27 Jun - 14:10:07 10° W 14:13:39 21° SW 14:17:15 10° S daylight
28 Jun - 05:50:22 10° SSW 05:54:11 43° SE 05:58:15 10° ENE daylight
28 Jun - 07:30:47 10° W 07:34:46 43° NNW 07:39:02 10° NE daylight
28 Jun - 09:12:27 10° WNW 09:16:10 26° N 09:20:05 10° ENE daylight
28 Jun - 10:53:21 10° NW 10:57:39 38° NNE 11:02:06 10° E daylight
28 Jun - 12:33:50 10° WNW 12:38:29 65° SW 12:43:19 10° SE daylight
28 Jun - 14:16:25 10° WSW 14:18:28 13° SW 14:20:32 10° SSW daylight
29 Jun - 04:18:25 10° SE 04:19:24 11° SE 04:20:22 10° ESE daylight
29 Jun - 05:55:11 10° SW 05:59:10 71° SE 06:03:27 10° ENE daylight
29 Jun - 07:36:12 10° W 07:40:02 34° NNW 07:44:06 10° NE daylight
29 Jun - 09:17:46 10° NW 09:21:31 26° N 09:25:27 10° ENE daylight
29 Jun - 10:58:25 10° NW 11:02:52 49° NNE 11:07:31 10° E daylight
29 Jun - 12:39:03 10° WNW 12:43:29 42° SW 12:48:04 10° SSE daylight
